Time,TemperatureF,DewpointF,PressureIn,WindDirection,WindDirectionDegrees,WindSpeedMPH,WindSpeedGustMPH,Humidity,HourlyPrecipIn,Conditions,Clouds,dailyrainin,SoftwareType,DateUTC
2013-03-01 00:02:00,33.9,31.0,30.11,North,360,0.0,0.0,89,0.00,,,0.02,Wunderground v.1.15,2013-03-01 06:02:00,
2013-03-01 00:12:00,33.9,31.0,30.11,North,360,0.0,0.0,89,0.00,,,0.02,Wunderground v.1.15,2013-03-01 06:12:00,
2013-03-01 00:23:00,33.8,30.9,30.11,North,360,0.0,0.0,89,0.00,,,0.02,Wunderground v.1.15,2013-03-01 06:23:00,
2013-03-01 00:32:00,33.8,30.9,30.11,North,360,0.0,0.0,89,0.00,,,0.02,Wunderground v.1.15,2013-03-01 06:32:00,
2013-03-01 00:42:00,33.8,30.9,30.11,North,360,0.0,0.0,89,0.00,,,0.02,Wunderground v.1.15,2013-03-01 06:42:00,
2013-03-01 00:53:00,33.5,30.3,30.11,North,360,0.0,0.0,88,0.00,,,0.02,Wunderground v.1.15,2013-03-01 06:53:00,
2013-03-01 01:03:00,33.2,29.8,30.11,North,360,0.0,0.0,87,0.00,,,0.02,Wunderground v.1.15,2013-03-01 07:03:00,
2013-03-01 01:13:00,33.0,29.6,30.11,North,360,0.0,0.0,87,0.00,,,0.02,Wunderground v.1.15,2013-03-01 07:13:00,
2013-03-01 01:22:00,32.9,29.2,30.11,North,360,0.0,0.0,86,0.00,,,0.02,Wunderground v.1.15,2013-03-01 07:22:00,
2013-03-01 01:33:00,32.9,29.2,30.11,North,360,0.0,0.0,86,0.00,,,0.02,Wunderground v.1.15,2013-03-01 07:33:00,
2013-03-01 01:42:00,32.7,28.7,30.11,North,360,0.0,0.0,85,0.00,,,0.02,Wunderground v.1.15,2013-03-01 07:42:00,
2013-03-01 01:53:00,32.7,28.7,30.11,North,360,0.0,0.0,85,0.00,,,0.00,Wunderground v.1.15,2013-03-01 07:53:00,
2013-03-01 02:02:00,32.4,28.1,30.11,North,360,0.0,0.0,84,0.00,,,0.00,Wunderground v.1.15,2013-03-01 08:02:00,
2013-03-01 02:13:00,32.3,27.7,30.11,North,360,0.0,0.0,83,0.00,,,0.00,Wunderground v.1.15,2013-03-01 08:13:00,
2013-03-01 02:22:00,32.1,27.5,30.11,North,360,0.0,0.0,83,0.00,,,0.00,Wunderground v.1.15,2013-03-01 08:22:00,
2013-03-01 02:33:00,31.8,26.6,30.11,North,360,0.0,0.0,81,0.00,,,0.00,Wunderground v.1.15,2013-03-01 08:33:00,
2013-03-01 02:42:00,31.7,26.2,30.11,North,360,0.0,0.0,80,0.00,,,0.00,Wunderground v.1.15,2013-03-01 08:42:00,
2013-03-01 02:53:00,31.7,26.2,30.11,North,360,0.0,0.0,80,0.00,,,0.00,Wunderground v.1.15,2013-03-01 08:53:00,
2013-03-01 03:02:00,31.5,26.0,30.11,North,360,0.0,0.0,80,0.00,,,0.00,Wunderground v.1.15,2013-03-01 09:02:00,
2013-03-01 03:13:00,31.3,25.5,30.11,North,360,0.0,0.0,79,0.00,,,0.00,Wunderground v.1.15,2013-03-01 09:13:00,
2013-03-01 03:22:00,31.1,25.0,30.11,North,360,0.0,0.0,78,0.00,,,0.00,Wunderground v.1.15,2013-03-01 09:22:00,
2013-03-01 03:32:00,31.0,24.9,30.11,North,360,0.0,0.0,78,0.00,,,0.00,Wunderground v.1.15,2013-03-01 09:32:00,
2013-03-01 03:43:00,30.8,24.4,30.11,North,360,0.0,0.0,77,0.00,,,0.00,Wunderground v.1.15,2013-03-01 09:43:00,
2013-03-01 03:52:00,30.8,24.4,30.11,North,360,0.0,0.0,77,0.00,,,0.00,Wunderground v.1.15,2013-03-01 09:52:00,
2013-03-01 04:02:00,30.7,24.0,30.11,North,360,0.0,0.0,76,0.00,,,0.00,Wunderground v.1.15,2013-03-01 10:02:00,
2013-03-01 04:13:00,30.5,23.2,30.11,North,360,0.0,0.0,74,0.00,,,0.00,Wunderground v.1.15,2013-03-01 10:13:00,
2013-03-01 04:22:00,30.5,23.2,30.11,North,360,0.0,0.0,74,0.00,,,0.00,Wunderground v.1.15,2013-03-01 10:22:00,
2013-03-01 04:32:00,30.4,23.4,30.12,North,360,0.0,0.0,75,0.00,,,0.00,Wunderground v.1.15,2013-03-01 10:32:00,
2013-03-01 04:42:00,30.4,23.4,30.12,North,360,0.0,0.0,75,0.00,,,0.00,Wunderground v.1.15,2013-03-01 10:42:00,
2013-03-01 04:53:00,30.2,22.6,30.12,North,360,0.0,0.0,73,0.00,,,0.00,Wunderground v.1.15,2013-03-01 10:53:00,
2013-03-01 05:02:00,30.2,22.9,30.12,North,360,0.0,0.0,74,0.00,,,0.00,Wunderground v.1.15,2013-03-01 11:02:00,
2013-03-01 05:13:00,30.1,23.4,30.13,North,360,0.0,0.0,76,0.00,,,0.00,Wunderground v.1.15,2013-03-01 11:13:00,
2013-03-01 05:22:00,29.9,23.6,30.13,North,360,0.0,0.0,77,0.00,,,0.00,Wunderground v.1.15,2013-03-01 11:22:00,
2013-03-01 05:32:00,29.9,23.6,30.13,North,360,0.0,0.0,77,0.00,,,0.00,Wunderground v.1.15,2013-03-01 11:32:00,
2013-03-01 05:42:00,29.9,23.3,30.13,North,360,0.0,0.0,76,0.00,,,0.00,Wunderground v.1.15,2013-03-01 11:42:00,
2013-03-01 05:52:00,29.8,22.8,30.13,North,360,0.0,0.0,75,0.00,,,0.00,Wunderground v.1.15,2013-03-01 11:52:00,
2013-03-01 06:03:00,29.6,21.7,30.13,North,360,0.0,0.0,72,0.00,,,0.00,Wunderground v.1.15,2013-03-01 12:03:00,
2013-03-01 06:12:00,29.6,22.0,30.14,North,360,0.0,0.0,73,0.00,,,0.00,Wunderground v.1.15,2013-03-01 12:12:00,
2013-03-01 06:23:00,29.6,22.0,30.14,North,360,0.0,0.0,73,0.00,,,0.00,Wunderground v.1.15,2013-03-01 12:23:00,
2013-03-01 06:33:00,29.5,22.2,30.14,North,360,0.0,0.0,74,0.00,,,0.00,Wunderground v.1.15,2013-03-01 12:33:00,
2013-03-01 06:42:00,29.5,22.6,30.15,North,360,0.0,0.0,75,0.00,,,0.00,Wunderground v.1.15,2013-03-01 12:42:00,
2013-03-01 06:52:00,29.3,22.7,30.15,North,360,0.0,0.0,76,0.00,,,0.00,Wunderground v.1.15,2013-03-01 12:52:00,
2013-03-01 07:03:00,29.2,22.9,30.15,North,360,0.0,0.0,77,0.00,,,0.00,Wunderground v.1.15,2013-03-01 13:03:00,
2013-03-01 07:12:00,29.0,22.7,30.16,North,360,0.0,0.0,77,0.00,,,0.00,Wunderground v.1.15,2013-03-01 13:12:00,
2013-03-01 07:22:00,28.9,22.6,30.16,North,360,0.0,0.0,77,0.00,,,0.00,Wunderground v.1.15,2013-03-01 13:22:00,
2013-03-01 07:33:00,28.7,22.7,30.16,North,360,0.0,0.0,78,0.00,,,0.00,Wunderground v.1.15,2013-03-01 13:33:00,
2013-03-01 07:42:00,28.6,22.9,30.16,North,360,0.0,0.0,79,0.00,,,0.00,Wunderground v.1.15,2013-03-01 13:42:00,
2013-03-01 07:52:00,28.6,23.2,30.17,North,360,0.0,0.0,80,0.00,,,0.00,Wunderground v.1.15,2013-03-01 13:52:00,
2013-03-01 08:02:00,28.7,23.3,30.17,North,360,0.0,0.0,80,0.00,,,0.00,Wunderground v.1.15,2013-03-01 14:02:00,
2013-03-01 08:12:00,28.7,23.3,30.17,North,360,0.0,0.0,80,0.00,,,0.00,Wunderground v.1.15,2013-03-01 14:12:00,
2013-03-01 08:22:00,28.9,23.2,30.17,North,360,0.0,0.0,79,0.00,,,0.00,Wunderground v.1.15,2013-03-01 14:22:00,
2013-03-01 08:33:00,29.0,23.0,30.17,North,360,0.0,0.0,78,0.00,,,0.00,Wunderground v.1.15,2013-03-01 14:33:00,
2013-03-01 08:42:00,29.2,22.9,30.17,NNE,17,0.0,0.0,77,0.00,,,0.00,Wunderground v.1.15,2013-03-01 14:42:00,
2013-03-01 08:52:00,29.2,22.9,30.17,NNW,337,0.0,0.0,77,0.00,,,0.00,Wunderground v.1.15,2013-03-01 14:52:00,
2013-03-01 09:02:00,29.3,23.0,30.18,NNE,13,0.0,0.0,77,0.00,,,0.00,Wunderground v.1.15,2013-03-01 15:02:00,
2013-03-01 09:12:00,29.5,23.2,30.18,NNE,24,0.0,0.0,77,0.00,,,0.00,Wunderground v.1.15,2013-03-01 15:12:00,
2013-03-01 09:22:00,29.8,23.2,30.18,NNE,15,0.0,0.0,76,0.00,,,0.00,Wunderground v.1.15,2013-03-01 15:22:00,
2013-03-01 09:33:00,30.1,23.1,30.18,North,355,0.0,0.0,75,0.00,,,0.00,Wunderground v.1.15,2013-03-01 15:33:00,
2013-03-01 09:43:00,30.4,23.1,30.18,North,350,0.0,0.0,74,0.00,,,0.00,Wunderground v.1.15,2013-03-01 15:43:00,
2013-03-01 09:52:00,30.7,23.1,30.18,North,9,0.0,0.0,73,0.00,,,0.00,Wunderground v.1.15,2013-03-01 15:52:00,
2013-03-01 10:02:00,31.1,23.1,30.18,NNW,348,0.0,0.0,72,0.00,,,0.00,Wunderground v.1.15,2013-03-01 16:02:00,
2013-03-01 10:12:00,31.0,23.4,30.18,NW,321,0.0,0.0,73,0.00,,,0.01,Wunderground v.1.15,2013-03-01 16:12:00,
2013-03-01 10:22:00,30.8,23.8,30.19,NNE,21,0.0,0.0,75,0.00,,,0.01,Wunderground v.1.15,2013-03-01 16:22:00,
2013-03-01 10:32:00,30.8,23.2,30.19,NNE,26,0.0,0.0,73,0.00,,,0.01,Wunderground v.1.15,2013-03-01 16:32:00,
2013-03-01 10:43:00,31.1,23.8,30.18,NNE,22,0.0,0.0,74,0.00,,,0.01,Wunderground v.1.15,2013-03-01 16:43:00,
2013-03-01 10:53:00,31.3,23.0,30.18,NNE,26,0.0,0.0,71,0.00,,,0.02,Wunderground v.1.15,2013-03-01 16:53:00,
2013-03-01 11:02:00,31.5,23.2,30.18,NNW,341,0.0,0.0,71,0.00,,,0.02,Wunderground v.1.15,2013-03-01 17:02:00,
2013-03-01 11:13:00,32.0,23.3,30.18,North,9,0.0,0.0,70,0.00,,,0.02,Wunderground v.1.15,2013-03-01 17:13:00,
2013-03-01 11:23:00,31.8,23.1,30.19,NNE,29,0.0,0.0,70,0.00,,,0.02,Wunderground v.1.15,2013-03-01 17:23:00,
2013-03-01 11:32:00,31.8,23.1,30.19,North,355,0.0,0.0,70,0.00,,,0.02,Wunderground v.1.15,2013-03-01 17:32:00,
2013-03-01 11:42:00,32.1,23.1,30.18,NNE,32,0.0,0.0,69,0.00,,,0.02,Wunderground v.1.15,2013-03-01 17:42:00,
2013-03-01 11:53:00,32.3,23.3,30.19,NNE,22,0.0,0.0,69,0.00,,,0.02,Wunderground v.1.15,2013-03-01 17:53:00,
2013-03-01 12:02:00,32.0,23.0,30.18,NNE,16,0.0,0.0,69,0.00,,,0.02,Wunderground v.1.15,2013-03-01 18:02:00,
2013-03-01 12:12:00,32.3,22.9,30.18,NNE,32,0.0,0.0,68,0.00,,,0.02,Wunderground v.1.15,2013-03-01 18:12:00,
2013-03-01 12:23:00,32.1,22.7,30.18,North,5,0.0,0.0,68,0.00,,,0.02,Wunderground v.1.15,2013-03-01 18:23:00,
2013-03-01 12:32:00,32.7,23.6,30.18,NE,34,0.0,0.0,69,0.00,,,0.02,Wunderground v.1.15,2013-03-01 18:32:00,
2013-03-01 12:47:00,32.7,24.0,30.18,North,5,0.0,0.0,70,0.00,,,0.02,Wunderground v.1.15,2013-03-01 18:47:00,
2013-03-01 12:53:00,32.7,23.3,30.17,NW,325,0.0,0.0,68,0.00,,,0.02,Wunderground v.1.15,2013-03-01 18:53:00,
2013-03-01 13:03:00,32.9,23.8,30.17,North,349,0.0,0.0,69,0.00,,,0.02,Wunderground v.1.15,2013-03-01 19:03:00,
2013-03-01 13:12:00,32.4,23.4,30.17,NNE,32,0.0,0.0,69,0.00,,,0.02,Wunderground v.1.15,2013-03-01 19:12:00,
2013-03-01 13:22:00,32.4,23.7,30.17,NE,38,0.0,0.0,70,0.00,,,0.02,Wunderground v.1.15,2013-03-01 19:22:00,
2013-03-01 13:33:00,32.7,24.3,30.17,NE,51,0.0,0.0,71,0.00,,,0.02,Wunderground v.1.15,2013-03-01 19:33:00,
2013-03-01 13:43:00,32.7,23.6,30.17,NE,51,0.0,0.0,69,0.00,,,0.02,Wunderground v.1.15,2013-03-01 19:43:00,
2013-03-01 13:52:00,32.7,23.3,30.17,North,360,0.0,0.0,68,0.00,,,0.02,Wunderground v.1.15,2013-03-01 19:52:00,
2013-03-01 14:03:00,32.6,23.9,30.17,NE,42,0.0,0.0,70,0.00,,,0.02,Wunderground v.1.15,2013-03-01 20:03:00,
2013-03-01 14:12:00,33.0,23.6,30.17,NNE,33,0.0,0.0,68,0.00,,,0.02,Wunderground v.1.15,2013-03-01 20:12:00,
2013-03-01 14:23:00,33.2,23.4,30.17,North,355,0.0,0.0,67,0.00,,,0.02,Wunderground v.1.15,2013-03-01 20:23:00,
2013-03-01 14:33:00,33.2,23.4,30.17,NE,35,0.0,0.0,67,0.00,,,0.02,Wunderground v.1.15,2013-03-01 20:33:00,
2013-03-01 14:42:00,32.9,22.8,30.18,NE,54,0.0,0.0,66,0.00,,,0.02,Wunderground v.1.15,2013-03-01 20:42:00,
2013-03-01 14:52:00,32.7,22.9,30.18,NE,41,0.0,0.0,67,0.00,,,0.02,Wunderground v.1.15,2013-03-01 20:52:00,
2013-03-01 15:03:00,32.7,22.9,30.18,NE,37,0.0,0.0,67,0.00,,,0.02,Wunderground v.1.15,2013-03-01 21:03:00,
2013-03-01 15:13:00,32.7,23.3,30.18,NNE,30,0.0,0.0,68,0.00,,,0.02,Wunderground v.1.15,2013-03-01 21:13:00,
2013-03-01 15:22:00,32.9,23.8,30.18,NE,49,0.0,0.0,69,0.00,,,0.02,Wunderground v.1.15,2013-03-01 21:22:00,
2013-03-01 15:32:00,32.7,23.3,30.18,NNE,31,0.0,0.0,68,0.00,,,0.02,Wunderground v.1.15,2013-03-01 21:32:00,
2013-03-01 15:42:00,32.9,23.5,30.18,NNE,26,0.0,0.0,68,0.00,,,0.02,Wunderground v.1.15,2013-03-01 21:42:00,
2013-03-01 15:57:00,32.7,23.6,30.19,ENE,60,0.0,0.0,69,0.00,,,0.02,Wunderground v.1.15,2013-03-01 21:57:00,
2013-03-01 16:02:00,32.9,23.5,30.19,NNE,33,0.0,0.0,68,0.00,,,0.02,Wunderground v.1.15,2013-03-01 22:02:00,
2013-03-01 16:13:00,33.0,22.9,30.19,NE,51,0.0,0.0,66,0.00,,,0.02,Wunderground v.1.15,2013-03-01 22:13:00,
2013-03-01 16:23:00,32.6,22.8,30.19,ENE,72,0.0,0.0,67,0.00,,,0.02,Wunderground v.1.15,2013-03-01 22:23:00,
2013-03-01 16:32:00,32.1,23.1,30.20,NE,40,0.0,0.0,69,0.00,,,0.02,Wunderground v.1.15,2013-03-01 22:32:00,
2013-03-01 16:42:00,31.8,23.1,30.20,ENE,57,0.0,0.0,70,0.00,,,0.02,Wunderground v.1.15,2013-03-01 22:42:00,
2013-03-01 16:53:00,31.7,23.4,30.20,NNE,28,0.0,0.0,71,0.00,,,0.02,Wunderground v.1.15,2013-03-01 22:53:00,
2013-03-01 17:03:00,31.7,23.4,30.21,NE,34,0.0,0.0,71,0.00,,,0.02,Wunderground v.1.15,2013-03-01 23:03:00,
2013-03-01 17:12:00,31.5,23.2,30.21,NNE,33,0.0,0.0,71,0.00,,,0.02,Wunderground v.1.15,2013-03-01 23:12:00,
2013-03-01 17:23:00,31.3,23.6,30.21,NE,56,0.0,0.0,73,0.00,,,0.02,Wunderground v.1.15,2013-03-01 23:23:00,
2013-03-01 17:32:00,31.0,23.4,30.22,NE,47,0.0,0.0,73,0.00,,,0.02,Wunderground v.1.15,2013-03-01 23:32:00,
2013-03-01 17:42:00,30.8,23.2,30.22,North,5,0.0,0.0,73,0.00,,,0.02,Wunderground v.1.15,2013-03-01 23:42:00,
2013-03-01 17:53:00,30.5,22.9,30.22,NE,40,0.0,0.0,73,0.00,,,0.02,Wunderground v.1.15,2013-03-01 23:53:00,
2013-03-01 18:03:00,30.4,23.1,30.23,NNE,28,0.0,0.0,74,0.00,,,0.02,Wunderground v.1.15,2013-03-02 00:03:00,
2013-03-01 18:12:00,30.1,22.8,30.23,North,5,0.0,0.0,74,0.00,,,0.02,Wunderground v.1.15,2013-03-02 00:12:00,
2013-03-01 18:22:00,30.1,23.1,30.24,North,5,0.0,0.0,75,0.00,,,0.02,Wunderground v.1.15,2013-03-02 00:22:00,
2013-03-01 18:33:00,29.8,22.8,30.24,NNE,21,0.0,0.0,75,0.00,,,0.02,Wunderground v.1.15,2013-03-02 00:33:00,
2013-03-01 18:42:00,29.6,22.6,30.24,North,355,0.0,0.0,75,0.00,,,0.02,Wunderground v.1.15,2013-03-02 00:42:00,
2013-03-01 18:52:00,29.5,22.9,30.25,NNE,17,0.0,0.0,76,0.00,,,0.02,Wunderground v.1.15,2013-03-02 00:52:00,
2013-03-01 19:02:00,29.5,22.9,30.25,NNW,339,0.0,0.0,76,0.00,,,0.02,Wunderground v.1.15,2013-03-02 01:02:00,
2013-03-01 19:12:00,29.3,22.7,30.25,NE,42,0.0,0.0,76,0.00,,,0.02,Wunderground v.1.15,2013-03-02 01:12:00,
2013-03-01 19:22:00,29.2,22.9,30.25,NE,40,0.0,0.0,77,0.00,,,0.02,Wunderground v.1.15,2013-03-02 01:22:00,
2013-03-01 19:32:00,29.0,22.7,30.25,NW,325,0.0,0.0,77,0.00,,,0.02,Wunderground v.1.15,2013-03-02 01:32:00,
2013-03-01 19:43:00,28.9,22.6,30.25,NE,47,0.0,0.0,77,0.00,,,0.02,Wunderground v.1.15,2013-03-02 01:43:00,
2013-03-01 19:52:00,28.7,22.4,30.25,NNE,27,0.0,0.0,77,0.00,,,0.02,Wunderground v.1.15,2013-03-02 01:52:00,
2013-03-01 20:02:00,28.7,22.4,30.25,NE,44,0.0,0.0,77,0.00,,,0.02,Wunderground v.1.15,2013-03-02 02:02:00,
2013-03-01 20:12:00,28.6,22.3,30.25,NNE,30,0.0,0.0,77,0.00,,,0.02,Wunderground v.1.15,2013-03-02 02:12:00,
2013-03-01 20:22:00,28.3,22.0,30.25,NNE,16,0.0,0.0,77,0.00,,,0.02,Wunderground v.1.15,2013-03-02 02:22:00,
2013-03-01 20:32:00,28.1,21.8,30.26,NNW,340,0.0,0.0,77,0.00,,,0.02,Wunderground v.1.15,2013-03-02 02:32:00,
2013-03-01 20:43:00,28.0,21.7,30.26,NNE,22,0.0,0.0,77,0.00,,,0.02,Wunderground v.1.15,2013-03-02 02:43:00,
2013-03-01 20:52:00,27.8,21.5,30.26,North,355,0.0,0.0,77,0.00,,,0.02,Wunderground v.1.15,2013-03-02 02:52:00,
2013-03-01 21:02:00,27.7,21.4,30.26,North,355,0.0,0.0,77,0.00,,,0.02,Wunderground v.1.15,2013-03-02 03:02:00,
2013-03-01 21:12:00,27.6,21.0,30.26,NNE,15,0.0,0.0,76,0.00,,,0.02,Wunderground v.1.15,2013-03-02 03:12:00,
2013-03-01 21:22:00,27.6,20.7,30.26,North,5,0.0,0.0,75,0.00,,,0.02,Wunderground v.1.15,2013-03-02 03:22:00,
2013-03-01 21:33:00,27.4,20.5,30.26,NNE,25,0.0,0.0,75,0.00,,,0.02,Wunderground v.1.15,2013-03-02 03:33:00,
2013-03-01 21:42:00,27.4,20.2,30.26,NE,41,0.0,0.0,74,0.00,,,0.02,Wunderground v.1.15,2013-03-02 03:42:00,
2013-03-01 21:52:00,27.4,19.9,30.26,NNE,25,0.0,0.0,73,0.00,,,0.02,Wunderground v.1.15,2013-03-02 03:52:00,
2013-03-01 22:02:00,27.4,19.9,30.26,North,350,0.0,0.0,73,0.00,,,0.02,Wunderground v.1.15,2013-03-02 04:02:00,
2013-03-01 22:12:00,27.4,20.2,30.26,NNE,15,0.0,0.0,74,0.00,,,0.02,Wunderground v.1.15,2013-03-02 04:12:00,
2013-03-01 22:22:00,27.6,20.4,30.26,North,10,0.0,0.0,74,0.00,,,0.02,Wunderground v.1.15,2013-03-02 04:22:00,
2013-03-01 22:33:00,27.6,20.4,30.26,NNE,12,0.0,0.0,74,0.00,,,0.02,Wunderground v.1.15,2013-03-02 04:33:00,
2013-03-01 22:42:00,27.6,20.4,30.26,NE,40,0.0,0.0,74,0.00,,,0.02,Wunderground v.1.15,2013-03-02 04:42:00,
2013-03-01 22:52:00,27.6,20.4,30.26,North,360,0.0,0.0,74,0.00,,,0.02,Wunderground v.1.15,2013-03-02 04:52:00,
2013-03-01 23:02:00,27.7,20.2,30.26,NNE,19,0.0,0.0,73,0.00,,,0.02,Wunderground v.1.15,2013-03-02 05:02:00,
2013-03-01 23:07:00,27.6,20.1,30.26,North,11,0.0,0.0,73,0.00,,,0.02,Wunderground v.1.15,2013-03-02 05:07:00,
2013-03-01 23:12:00,27.7,20.2,30.26,North,360,0.0,0.0,73,0.00,,,0.02,Wunderground v.1.15,2013-03-02 05:12:00,
2013-03-01 23:17:00,27.6,20.4,30.26,NNW,333,0.0,0.0,74,0.00,,,0.02,Wunderground v.1.15,2013-03-02 05:17:00,
2013-03-01 23:22:00,27.7,20.2,30.26,NNW,348,0.0,0.0,73,0.00,,,0.02,Wunderground v.1.15,2013-03-02 05:22:00,
2013-03-01 23:33:00,27.7,20.2,30.26,NNE,17,0.0,0.0,73,0.00,,,0.02,Wunderground v.1.15,2013-03-02 05:33:00,
2013-03-01 23:43:00,27.7,20.2,30.26,WNW,298,0.0,0.0,73,0.00,,,0.02,Wunderground v.1.15,2013-03-02 05:43:00,
2013-03-01 23:52:00,27.7,20.2,30.26,NNE,21,0.0,0.0,73,0.00,,,0.02,Wunderground v.1.15,2013-03-02 05:52:00,